STARLINK-35897 (66501 NORAD) Tracking and Keplerian Element Data

This shows tracking and keplerian element data for the satellite.

Feedback or suggestion? Click here.




ElementValue
Catalog66501
NameSTARLINK-35897
Epoch Orbit667
Epoch Day353.94956744
Epoch Year2025
RAAN83.6305
Inclination43.0016
Eccentricity0.0001215
Argument of Perigee278.4121
Mean Anonmoly81.6598
Mean Motion15.40707559
Decay Rate0.0001694
L11 66501U 25263S 25353.94956744 .00016940 00000+0 41179-3 0 9996
L22 66501 43.0016 83.6305 0001215 278.4121 81.6598 15.40707559 6672



Live tracking and technical data element details for STARLINK-35897 (NORAD 66501). STARLINK-35897 can be tracked NOW for your location showing map with azimuth and elevation plus other details from your city location.







IsCatalogInMostPopularTable: catalog: 66501, numindb: 3
Update: records affected: 1



GetName: 66501 STARLINK-35897

Hit Count: updated at: Tue, 10 Feb 2026 03:18:34 GMT